Pineville, LA

2:36 PM CST on January 24, 2017 (GMT -0600)
Alexandria Esler Regional

Weather History for KESF - February, 2012

Change the Weather History Date:

Sunday, February 5, 2012

  Actual Average Record
Temperature  
Mean Temperature 50 °F -  
Max Temperature 53 °F 58 °F 80 °F (2008)
Min Temperature 45 °F 36 °F 23 °F (1966)
Degree Days  
Heating Degree Days 16    
Moisture  
Dew Point 42 °F    
Average Humidity 76    
Maximum Humidity 83    
Minimum Humidity 68    
Precipitation  
Precipitation 0.00 in - - ()
Sea Level Pressure  
Sea Level Pressure 30.23 in    
Wind  
Wind Speed 5 mph (NNW)    
Max Wind Speed 9 mph    
Max Gust Speed 17 mph    
Visibility 10 miles    
Events      
Averages and records for this station are not official NWS values.
T = Trace of Precipitation, MM = Missing Value Source: NWS Daily Summary

Daily Weather History Graph

Daily Weather History Graph

Search for Another Location

Airport or City:

Trip Planner

Search our weather history database for the weather conditions in past years. The results will help you decide how hot, cold, wet, or windy it might be!

Date:

Astronomy

Feb. 05, 2012 Rise Set
Actual Time 6:59 AM CST 5:47 PM CST
Civil Twilight 6:34 AM CST 6:12 PM CST
Nautical Twilight 6:05 AM CST 6:41 PM CST
Astronomical Twilight 5:36 AM CST 7:10 PM CST
Moon 3:50 PM CST (2/5) 5:05 AM CST (2/5)
Length of Visible Light 11h 38m
Length of Day
10h 48m
Waxing Gibbous, 95% of the Moon is Illuminated
Feb 5
Waxing Gibbous
Feb 7
Full
Feb 14
Last Quarter
Feb 21
New
Feb 29
First Quarter

Hourly Weather History & Observations

Time (CST) Temp. Windchill Dew Point Humidity Pressure Visibility Wind Dir Wind Speed Gust Speed Precip Events Conditions
12:53 AM 53.1 °F - 48.0 °F 83% 30.17 in 10.0 mi Variable 3.5 mph - N/A   Mostly Cloudy
1:37 AM 51.8 °F - 46.4 °F 82% 30.17 in 10.0 mi Variable 5.8 mph - N/A   Overcast
1:53 AM 52.0 °F - 46.9 °F 83% 30.17 in 10.0 mi North 5.8 mph - N/A   Overcast
2:53 AM 52.0 °F - 46.9 °F 83% 30.18 in 10.0 mi Variable 4.6 mph - N/A   Overcast
3:53 AM 52.0 °F - 46.9 °F 83% 30.17 in 10.0 mi Variable 4.6 mph - N/A   Overcast
4:01 AM 51.8 °F - 46.4 °F 82% 30.17 in 10.0 mi NNW 5.8 mph - N/A   Overcast
4:16 AM 51.8 °F - 44.6 °F 76% 30.17 in 10.0 mi NNW 5.8 mph - N/A   Overcast
4:50 AM 51.8 °F - 44.6 °F 76% 30.19 in 10.0 mi NNW 4.6 mph - N/A   Overcast
4:53 AM 51.1 °F - 44.1 °F 77% 30.19 in 10.0 mi Variable 4.6 mph - N/A   Overcast
5:16 AM 50.0 °F - 44.6 °F 82% 30.19 in 10.0 mi NNW 4.6 mph - N/A   Overcast
5:48 AM 48.2 °F - 42.8 °F 82% 30.21 in 10.0 mi Variable 6.9 mph - N/A   Overcast
5:53 AM 48.9 °F - 43.0 °F 80% 30.20 in 10.0 mi Variable 5.8 mph - N/A   Overcast
6:53 AM 48.0 °F - 42.1 °F 80% 30.22 in 10.0 mi NNW 5.8 mph - N/A   Overcast
7:53 AM 48.0 °F - 42.1 °F 80% 30.26 in 10.0 mi NW 6.9 mph - N/A   Overcast
8:53 AM 48.0 °F - 41.0 °F 77% 30.25 in 10.0 mi Variable 4.6 mph 17.3 mph N/A   Overcast
9:53 AM 48.0 °F - 39.9 °F 74% 30.27 in 10.0 mi North 8.1 mph - N/A   Overcast
10:53 AM 48.9 °F - 39.9 °F 71% 30.27 in 10.0 mi Variable 3.5 mph - N/A   Overcast
11:53 AM 48.9 °F - 39.9 °F 71% 30.29 in 10.0 mi NNW 6.9 mph - N/A   Overcast
12:53 PM 48.9 °F - 39.9 °F 71% 30.26 in 10.0 mi Variable 6.9 mph - N/A   Overcast
1:53 PM 50.0 °F - 39.9 °F 68% 30.24 in 10.0 mi North 9.2 mph - N/A   Overcast
2:53 PM 50.0 °F - 39.9 °F 68% 30.22 in 10.0 mi Variable 5.8 mph - N/A   Mostly Cloudy
3:05 PM 50.0 °F - 41.0 °F 71% 30.23 in 10.0 mi NNE 6.9 mph - N/A   Scattered Clouds
3:49 PM 50.0 °F - 41.0 °F 71% 30.23 in 10.0 mi NNW 5.8 mph - N/A   Mostly Cloudy
3:53 PM 50.0 °F - 41.0 °F 71% 30.23 in 10.0 mi Calm Calm - N/A   Mostly Cloudy
4:53 PM 48.9 °F - 41.0 °F 74% 30.24 in 10.0 mi Calm Calm - N/A   Overcast
5:53 PM 48.9 °F - 41.0 °F 74% 30.25 in 10.0 mi Variable 3.5 mph - N/A   Overcast
6:53 PM 48.0 °F - 41.0 °F 77% 30.25 in 10.0 mi Calm Calm - N/A   Overcast
7:31 PM 48.2 °F - 41.0 °F 76% 30.26 in 10.0 mi Variable 3.5 mph - N/A   Scattered Clouds
7:53 PM 48.0 °F - 41.0 °F 77% 30.27 in 10.0 mi North 4.6 mph - N/A   Clear
8:53 PM 46.9 °F - 39.9 °F 77% 30.28 in 10.0 mi Variable 3.5 mph - N/A   Scattered Clouds
9:10 PM 46.4 °F 44.3 °F 39.2 °F 76% 30.28 in 10.0 mi North 4.6 mph - N/A   Mostly Cloudy
9:53 PM 46.9 °F - 39.0 °F 74% 30.27 in 10.0 mi North 5.8 mph - N/A   Overcast
10:53 PM 46.0 °F 43.9 °F 37.9 °F 73% 30.28 in 10.0 mi Variable 4.6 mph - N/A   Overcast
11:53 PM 45.0 °F 42.6 °F 37.9 °F 76% 30.27 in 10.0 mi Variable 4.6 mph - N/A   Overcast